Location: Killam
(52.7910°N, 111.8608°W)
Time: 10:49:27
(UTC+00:00)

SR - Pass Details

Date: 25 February 2026
Orbit: 573 x 848 km, 66.7° (Epoch: 7 March)

Event Time Altitude Azimuth Distance (km) Brightness Sun altitude
Exits shadow 13:15:09 11° 301° (WNW) 1,921 ? -10.9°
Maximum altitude 13:18:01 19° 343° (NNW) 1,562 ? -10.5°
Drops below altitude 10° 13:21:22 10° 28° (NNE) 2,118 ? -10.0°
Sets 13:24:27 0° 46° (NE) 3,096 ? -9.5°
